Wind_Speed
10 8 4 1 3 5 11 8 13 13 11 7 13 2 11 13 7 6 17 13 15 13 11 13 13 12 11 13 11 10 9 9 9 9 10 10 12 12 12 12 12 13 14 16 16 16 16 15 17
9 6 1 3 5 9 8 11 14 9 11 18 11 9 5 7 10 19 15 16 15 14 12 10 12 11 11 12 11 9 9 9 10 13 11 12 13 12 11 12 12 12 14 14 14 15 14 14 14
7 3 4 3 4 8 11 12 10 12 16 12 5 8 5 5 17 12 18 17 16 13 12 12 12 11 11 11 11 11 11 11 14 14 13 13 13 12 11 12 12 13 14 13 12 15 14 13 14
4 2 4 6 12 9 14 13 12 12 11 3 10 10 10 14 10 14 19 17 15 14 11 13 13 13 12 12 12 12 12 13 14 13 13 14 13 13 13 12 12 12 13 12 13 15 13 13 13
2 4 2 5 15 17 14 13 13 8 6 8 3 10 16 6 14 21 19 17 15 14 12 12 13 11 12 12 13 14 13 13 13 14 14 14 14 12 11 12 13 12 12 12 14 14 15 15 14
4 3 4 10 17 12 10 8 6 7 9 10 18 21 10 12 20 18 17 17 14 14 13 11 12 12 12 13 13 13 13 13 12 11 12 11 11 11 11 11 11 13 13 14 15 15 13 14 14
4 1 4 12 13 8 8 4 6 8 8 8 15 12 12 16 17 18 18 16 15 14 14 11 11 10 11 12 11 13 12 12 11 10 9 9 8 8 10 10 10 12 13 15 16 15 13 13 12
2 3 6 9 10 8 5 9 7 9 8 12 14 8 15 21 19 18 18 16 15 13 13 12 12 11 10 11 12 12 10 10 10 9 9 8 8 8 9 10 11 11 13 15 14 11 9 10 12
1 3 5 5 7 8 12 9 8 9 15 5 5 14 23 24 21 19 17 16 15 14 13 13 11 12 12 10 11 10 10 10 11 11 9 7 7 7 8 10 11 12 12 14 13 11 14 14 14
1 0 5 2 5 11 10 8 15 10 11 8 13 20 25 24 22 20 18 17 15 14 14 13 12 11 11 9 10 10 8 8 8 9 9 9 8 11 10 11 12 13 12 13 12 13 16 15 9
1 3 5 6 6 14 10 8 8 9 3 10 20 27 25 23 21 19 17 17 16 15 13 13 12 12 11 10 9 8 7 6 7 10 10 12 12 11 11 10 11 13 13 9 10 13 10 10 10
6 4 2 4 6 6 5 7 7 1 6 12 22 25 24 21 20 18 17 17 17 16 13 13 12 12 12 9 10 9 7 7 7 6 9 9 10 12 11 12 14 13 11 12 10 9 9 8 9
7 7 6 10 7 7 8 7 7 7 10 19 22 23 22 19 17 17 16 16 16 16 15 14 13 11 10 12 9 11 8 8 8 7 9 9 9 12 12 15 14 13 12 11 10 9 7 7 7
4 6 10 9 10 9 7 8 6 8 16 18 22 21 20 17 17 17 17 16 16 15 15 14 12 12 11 9 10 9 8 5 6 7 6 10 8 13 13 13 13 13 12 11 9 8 6 6 6
10 9 8 7 9 6 6 7 6 14 18 18 21 21 19 17 15 16 17 17 16 15 15 14 13 13 13 12 10 8 5 4 7 7 8 6 9 14 14 12 12 11 13 13 11 9 6 5 5
6 8 10 11 10 6 7 7 10 16 20 20 21 21 19 18 16 15 15 16 17 16 16 15 13 12 13 11 9 7 6 6 7 7 8 8 10 12 12 10 10 11 9 8 6 5 4 3 3
9 6 5 6 10 5 9 3 11 16 20 21 23 22 20 18 16 16 15 16 18 17 17 16 13 13 12 13 9 9 10 8 7 7 6 8 10 11 9 9 9 10 7 6 5 4 5 3 2
11 9 6 3 8 8 8 7 10 16 19 21 23 22 21 20 19 18 18 16 17 18 18 16 14 14 13 11 11 9 9 8 7 7 7 8 8 10 10 9 10 8 7 5 5 5 3 3 1
6 9 7 5 2 7 8 7 9 15 19 21 21 24 23 22 21 20 21 20 18 19 18 17 16 17 15 12 11 11 12 10 8 8 9 7 8 9 10 8 9 8 6 6 5 3 2 1 2
10 10 9 5 5 6 3 8 10 15 19 23 24 25 25 24 24 23 23 23 22 21 19 19 18 19 17 12 10 12 11 11 8 8 7 7 10 8 6 8 8 7 5 5 5 5 4 3 1
17 14 9 7 5 10 7 14 10 12 17 20 22 24 24 26 26 26 24 25 24 24 22 20 20 20 19 14 12 13 14 12 11 8 6 8 10 8 7 7 8 9 7 5 7 6 6 3 3
19 16 9 8 8 6 2 1 13 13 16 20 25 25 27 27 27 27 27 26 26 25 23 22 21 22 22 19 15 13 13 14 12 11 9 8 8 7 7 7 7 7 8 10 10 10 7 6 3
19 9 12 12 12 11 12 7 5 14 14 19 27 30 30 30 30 30 30 29 27 25 25 25 24 23 21 22 19 15 13 14 12 11 11 10 9 7 8 9 7 7 6 11 15 14 12 7 6
19 5 9 11 13 13 15 7 7 11 14 18 24 31 29 30 31 31 30 29 29 27 26 25 27 28 26 25 26 22 16 15 15 13 10 8 8 8 11 12 10 8 7 6 10 13 13 11 9
23 17 11 12 12 13 6 7 13 1 5 9 22 31 32 30 31 31 33 32 31 30 28 26 26 30 29 27 28 27 21 19 17 16 12 10 8 10 12 12 11 8 8 7 8 10 12 11 10
23 23 15 18 13 14 13 7 6 3 2 9 16 26 30 32 33 34 34 34 33 31 30 28 27 29 30 29 29 30 27 20 18 18 15 12 10 10 12 11 10 9 10 9 7 7 8 10 11
23 24 23 22 17 13 12 14 9 10 5 9 13 19 28 33 34 35 34 35 34 33 32 31 30 31 31 30 31 32 30 26 20 17 21 15 13 11 12 11 11 10 10 10 8 7 8 9 9
21 18 20 16 23 19 17 16 8 12 9 6 8 16 24 31 34 33 33 34 35 35 33 31 32 33 33 30 31 32 32 30 27 22 20 18 15 15 13 12 12 11 12 10 8 8 9 8 8
15 15 18 18 19 16 16 16 12 14 2 4 4 9 20 26 32 33 32 32 34 33 32 32 33 35 33 32 30 30 32 30 28 24 23 22 20 19 16 14 13 13 13 12 10 10 10 10 9
25 24 22 16 23 18 15 14 8 8 1 6 6 3 10 25 30 31 31 30 29 31 32 31 30 32 37 35 33 30 28 31 29 30 25 25 23 21 19 16 15 15 15 14 13 11 11 12 12
Wind_Direction
150 145 163 231 217 229 109 94 115 119 136 110 129 121 74 28 2 66 136 131 131 133 140 132 134 140 145 137 134 135 131 127 122 113 117 118 123 124 130 128 122 107 106 107 101 100 103 100 101
152 148 227 262 238 123 93 127 127 124 114 126 109 116 80 74 78 120 127 134 130 133 129 138 133 132 133 138 129 129 127 128 120 124 120 121 118 124 122 125 121 119 110 103 109 108 100 99 97
165 178 265 259 256 92 109 114 112 118 135 135 99 68 55 77 121 115 138 132 130 127 131 143 129 126 128 129 133 128 125 123 121 119 115 113 124 122 124 128 122 117 114 109 105 102 98 95 94
188 222 242 235 107 71 106 112 125 129 141 106 113 83 85 119 117 133 131 131 130 131 127 133 129 130 128 129 129 125 123 123 120 119 119 116 113 116 117 117 116 114 116 114 107 104 94 90 82
228 246 204 129 89 91 107 118 140 151 140 134 121 105 113 104 126 131 131 131 131 129 138 129 130 132 131 129 128 128 126 128 126 123 122 123 123 121 118 112 105 109 116 112 112 105 97 89 83
237 277 190 116 108 107 104 106 117 124 127 117 117 117 100 131 135 134 133 129 134 132 135 130 134 133 132 134 132 131 132 131 129 130 126 128 128 125 118 115 113 110 110 121 120 114 107 101 91
307 293 124 131 120 139 100 85 103 121 136 118 137 118 125 143 142 139 136 136 137 136 136 134 129 134 143 143 137 134 133 131 134 132 130 128 130 129 125 123 118 121 119 124 124 121 111 109 96
285 267 147 139 158 117 149 108 104 109 96 127 135 151 154 154 147 143 139 142 140 137 138 145 137 141 129 133 144 143 135 134 125 118 121 132 138 142 139 141 141 130 126 131 123 115 112 110 92
273 236 136 126 132 132 145 125 118 116 134 115 134 141 150 152 148 146 145 147 143 147 146 142 145 137 137 140 142 136 135 131 121 128 121 112 123 127 121 158 157 147 140 138 131 112 105 95 84
334 286 65 13 128 142 136 126 134 135 139 133 123 130 145 150 153 154 155 155 153 152 151 147 147 146 136 135 129 159 142 132 138 134 119 101 130 144 153 153 155 152 143 136 128 117 108 86 74
168 56 139 113 113 141 150 130 148 130 131 158 151 146 151 154 157 161 160 159 157 157 156 155 151 143 138 151 138 129 125 122 125 128 120 115 108 107 126 136 142 146 135 124 125 111 105 108 89
187 204 154 114 130 118 123 118 137 131 92 142 149 149 152 158 162 165 164 164 160 160 159 156 157 153 154 147 128 138 128 141 120 139 117 100 87 106 121 138 143 137 134 150 133 126 125 99 87
238 114 120 155 142 140 148 133 126 112 129 140 148 151 154 159 164 166 167 166 165 162 163 165 163 162 162 143 155 142 135 122 142 128 123 118 115 114 116 128 134 140 142 143 135 136 120 98 89
130 120 124 148 158 164 160 149 172 126 146 147 158 159 159 159 164 167 170 169 171 168 168 172 170 171 165 158 150 141 135 142 135 137 140 129 116 112 115 118 133 139 141 145 142 136 114 107 89
138 142 139 146 160 156 186 192 201 156 160 163 171 169 166 166 167 172 172 173 172 172 169 174 168 167 168 162 155 147 129 143 141 146 152 140 127 126 122 128 129 137 147 143 142 120 111 94 69
191 194 189 152 182 146 221 97 153 163 170 174 175 174 175 174 172 172 176 176 174 173 171 168 167 173 167 174 162 160 153 135 138 139 142 149 151 147 131 131 140 144 138 141 139 135 124 104 95
195 195 212 160 203 151 232 90 151 177 179 179 178 181 180 178 179 179 175 175 175 173 174 170 170 172 174 172 165 158 163 134 142 143 144 145 155 161 150 156 165 149 158 159 152 148 129 114 83
198 217 174 169 166 211 208 242 154 183 192 182 182 185 185 185 185 184 177 176 178 175 175 176 172 176 173 177 167 167 167 153 147 145 148 143 151 153 147 161 157 147 155 162 158 159 166 154 205
295 242 181 119 121 215 222 240 196 182 195 190 189 188 190 191 184 185 184 178 181 180 179 180 178 182 176 175 178 170 172 166 158 158 161 155 158 161 154 161 156 151 158 171 172 173 206 195 298
226 229 197 129 147 236 217 249 206 187 201 202 195 189 191 191 187 185 187 187 185 187 188 185 183 184 178 182 183 171 178 167 169 161 165 180 173 170 172 180 186 178 195 177 173 170 188 202 297
232 229 219 272 160 228 268 245 201 194 196 202 204 196 194 193 190 190 189 191 191 193 194 196 191 191 187 182 185 180 174 175 164 167 156 160 165 174 183 189 190 211 198 226 220 210 200 212 289
224 219 261 221 241 261 234 316 177 179 194 195 202 200 197 194 197 194 194 194 195 195 197 198 197 195 197 194 187 191 175 178 179 173 175 173 180 189 193 195 207 216 224 223 229 230 223 237 276
239 219 227 246 250 262 214 250 146 172 200 201 202 204 201 196 195 197 197 197 195 197 200 199 203 202 198 201 189 196 191 188 182 180 187 186 210 200 199 204 216 232 223 234 220 228 233 248 258
227 212 230 235 247 247 247 235 253 180 220 200 201 203 203 198 198 198 199 199 201 199 199 202 204 211 209 206 198 195 198 192 186 183 185 192 203 216 212 215 226 229 217 225 223 231 239 246 261
220 210 214 216 216 235 197 240 249 192 164 214 196 202 201 201 199 197 197 199 202 203 204 204 205 211 215 214 207 204 202 203 203 197 191 198 208 212 224 219 223 217 220 227 231 233 242 250 252
215 221 227 221 226 227 180 238 228 89 352 187 202 201 202 201 201 200 199 199 201 203 204 205 208 211 215 216 214 208 208 208 210 216 204 204 207 208 217 223 215 214 230 234 239 237 241 252 253
201 221 234 245 249 254 211 221 247 244 249 199 193 195 200 203 202 201 200 200 200 202 203 205 207 212 215 216 217 211 211 205 211 215 210 210 209 210 213 211 213 220 228 234 240 228 254 257 259
241 208 224 231 236 229 239 242 238 176 164 135 195 208 206 205 204 203 202 200 199 200 202 206 208 214 214 213 215 213 213 215 217 215 219 214 218 217 218 213 214 220 223 229 235 238 256 255 259
200 233 223 227 229 233 232 234 206 230 300 311 300 226 206 202 203 202 202 202 202 200 200 205 207 215 212 212 214 212 214 214 218 216 220 223 227 230 228 227 218 221 222 225 233 235 236 260 257
221 215 223 220 217 230 255 229 93 123 160 3 11 334 222 195 195 196 196 197 199 201 202 204 205 209 217 219 217 216 213 213 218 224 220 224 230 237 231 233 236 229 227 231 239 250 244 252 250
Height
1512 1514 1515 1516 1516 1501 1498 1506 1500 1507 1510 1512 1516 1517 1521 1525 1523 1533 1546 1549 1552 1555 1555 1555 1557 1558 1560 1561 1562 1562 1564 1566 1567 1568 1569 1570 1569 1570 1572 1573 1574 1576 1576 1577 1577 1578 1579 1580 1580
1514 1515 1515 1513 1503 1496 1505 1497 1504 1505 1510 1516 1519 1522 1524 1531 1535 1540 1547 1550 1554 1556 1558 1558 1558 1560 1561 1563 1564 1565 1566 1567 1570 1570 1570 1571 1573 1573 1574 1575 1576 1577 1579 1580 1581 1581 1581 1582 1582
1516 1516 1516 1507 1492 1497 1503 1499 1506 1511 1515 1517 1521 1524 1528 1538 1541 1544 1548 1552 1555 1557 1560 1558 1559 1561 1562 1563 1566 1566 1567 1569 1572 1572 1573 1574 1575 1575 1575 1576 1578 1580 1582 1583 1583 1584 1584 1584 1585
1517 1518 1515 1506 1496 1497 1497 1508 1512 1516 1517 1520 1522 1528 1537 1541 1544 1546 1550 1554 1556 1559 1559 1559 1560 1562 1564 1566 1567 1568 1569 1571 1573 1574 1575 1576 1577 1577 1578 1578 1579 1581 1584 1585 1585 1586 1586 1588 1588
1517 1514 1508 1496 1498 1502 1509 1511 1514 1516 1516 1522 1523 1531 1538 1545 1546 1549 1552 1556 1558 1560 1561 1561 1562 1564 1566 1568 1569 1570 1572 1574 1575 1576 1577 1578 1578 1579 1580 1581 1582 1583 1585 1586 1588 1588 1589 1590 1590
1515 1512 1508 1504 1510 1510 1510 1513 1515 1517 1521 1525 1527 1533 1542 1547 1548 1551 1555 1557 1560 1562 1564 1564 1564 1566 1568 1570 1571 1572 1574 1575 1576 1577 1578 1579 1580 1581 1582 1583 1584 1586 1587 1588 1589 1590 1591 1592 1593
1512 1512 1507 1500 1515 1513 1514 1516 1514 1518 1521 1525 1529 1532 1545 1548 1551 1553 1556 1559 1561 1563 1565 1566 1567 1568 1569 1571 1573 1575 1575 1578 1578 1579 1580 1581 1582 1583 1584 1585 1587 1588 1589 1590 1592 1592 1593 1595 1595
1516 1512 1503 1500 1508 1517 1520 1517 1519 1520 1524 1529 1531 1534 1542 1546 1551 1554 1557 1559 1562 1564 1566 1568 1570 1572 1573 1573 1575 1577 1577 1579 1580 1581 1581 1582 1583 1584 1586 1587 1588 1590 1591 1592 1594 1595 1595 1596 1597
1516 1507 1511 1514 1506 1512 1515 1515 1521 1523 1527 1529 1532 1534 1540 1546 1551 1555 1558 1561 1563 1566 1568 1569 1571 1572 1574 1577 1577 1578 1579 1580 1581 1581 1582 1583 1586 1587 1587 1588 1590 1591 1593 1594 1596 1597 1598 1599 1600
1515 1507 1508 1511 1509 1509 1514 1515 1520 1523 1527 1531 1533 1537 1543 1547 1551 1555 1558 1561 1564 1567 1569 1571 1573 1574 1576 1579 1580 1580 1581 1582 1582 1583 1584 1586 1586 1587 1589 1588 1590 1593 1595 1597 1598 1600 1601 1601 1605
1514 1514 1512 1511 1513 1517 1517 1519 1520 1522 1525 1529 1533 1538 1544 1548 1552 1556 1558 1560 1563 1567 1570 1571 1574 1575 1579 1581 1582 1584 1585 1585 1585 1585 1585 1585 1587 1588 1590 1590 1593 1595 1597 1601 1602 1602 1605 1605 1606
1508 1514 1512 1515 1516 1518 1518 1524 1520 1523 1529 1530 1536 1540 1544 1549 1552 1555 1558 1561 1563 1567 1570 1572 1574 1576 1579 1581 1583 1585 1586 1586 1588 1588 1586 1588 1590 1590 1591 1593 1596 1598 1602 1602 1604 1606 1605 1606 1606
1504 1507 1511 1513 1517 1519 1522 1523 1525 1529 1531 1534 1538 1542 1545 1549 1553 1556 1559 1562 1564 1567 1570 1572 1573 1575 1577 1580 1583 1585 1587 1588 1588 1589 1588 1592 1592 1592 1593 1594 1598 1601 1602 1604 1606 1606 1607 1607 1608
1505 1507 1510 1514 1518 1520 1521 1525 1526 1531 1533 1536 1540 1542 1545 1549 1553 1556 1559 1562 1565 1568 1570 1572 1573 1575 1578 1581 1582 1585 1587 1588 1589 1590 1590 1591 1594 1593 1594 1596 1599 1601 1604 1605 1606 1607 1609 1610 1610
1507 1508 1510 1513 1516 1518 1520 1524 1524 1530 1534 1537 1540 1542 1545 1549 1553 1557 1559 1561 1564 1567 1570 1572 1575 1576 1578 1581 1583 1585 1588 1590 1590 1592 1591 1593 1594 1595 1597 1600 1602 1603 1604 1605 1606 1608 1609 1611 1612
1502 1502 1506 1510 1514 1517 1519 1516 1524 1529 1532 1536 1538 1542 1546 1549 1553 1556 1559 1561 1564 1567 1570 1572 1576 1578 1579 1581 1584 1587 1589 1591 1592 1593 1593 1593 1595 1597 1599 1602 1604 1605 1606 1608 1610 1611 1613 1613 1613
1500 1496 1502 1510 1511 1514 1516 1512 1521 1526 1528 1532 1536 1540 1544 1548 1552 1555 1558 1561 1563 1567 1570 1572 1576 1579 1580 1582 1586 1588 1588 1592 1593 1595 1596 1595 1596 1598 1601 1604 1604 1605 1609 1610 1612 1613 1614 1615 1614
1496 1498 1498 1504 1505 1512 1512 1511 1516 1523 1525 1526 1532 1537 1541 1545 1550 1554 1557 1561 1564 1566 1569 1572 1575 1578 1580 1583 1585 1589 1591 1593 1595 1596 1598 1596 1598 1599 1601 1604 1604 1607 1610 1611 1613 1613 1614 1615 1615
1492 1491 1496 1500 1505 1507 1506 1506 1505 1517 1521 1523 1528 1533 1538 1542 1547 1551 1556 1559 1563 1566 1568 1571 1574 1576 1579 1583 1585 1588 1591 1593 1595 1597 1596 1597 1599 1600 1602 1606 1606 1608 1610 1611 1612 1613 1614 1616 1615
1494 1496 1495 1500 1503 1505 1500 1502 1499 1507 1515 1517 1521 1527 1533 1539 1543 1548 1552 1557 1560 1564 1567 1570 1572 1575 1578 1583 1586 1588 1591 1593 1595 1597 1597 1598 1599 1601 1603 1605 1607 1608 1610 1610 1612 1613 1616 1616 1615
1491 1494 1490 1497 1500 1500 1501 1496 1495 1501 1509 1515 1517 1522 1528 1533 1538 1544 1549 1553 1557 1561 1564 1568 1571 1574 1578 1582 1585 1586 1590 1592 1594 1596 1598 1598 1599 1601 1603 1604 1607 1607 1609 1612 1612 1613 1614 1616 1615
1493 1485 1490 1495 1501 1500 1496 1499 1490 1493 1502 1508 1513 1517 1521 1527 1534 1540 1545 1550 1554 1558 1562 1566 1569 1572 1575 1579 1584 1587 1588 1591 1594 1596 1598 1599 1600 1601 1602 1604 1605 1606 1608 1611 1611 1612 1614 1614 1616
1489 1479 1490 1491 1495 1493 1491 1502 1476 1484 1496 1497 1503 1508 1513 1519 1526 1533 1539 1545 1550 1555 1559 1563 1566 1570 1574 1576 1581 1585 1588 1590 1592 1595 1595 1598 1599 1600 1602 1603 1604 1605 1606 1607 1609 1610 1612 1613 1614
1485 1489 1493 1493 1492 1502 1486 1491 1478 1475 1480 1485 1495 1502 1507 1513 1520 1527 1534 1541 1546 1551 1555 1559 1562 1566 1570 1573 1577 1581 1587 1589 1591 1593 1594 1596 1598 1599 1600 1601 1603 1604 1605 1606 1607 1609 1610 1611 1611
1485 1490 1506 1511 1503 1505 1475 1493 1481 1469 1473 1476 1483 1492 1500 1507 1513 1520 1527 1534 1540 1546 1551 1555 1557 1561 1566 1570 1574 1578 1583 1586 1589 1590 1592 1595 1597 1598 1598 1599 1601 1603 1604 1605 1605 1606 1607 1608 1609
1482 1481 1490 1515 1499 1488 1471 1494 1476 1467 1470 1472 1477 1485 1494 1501 1506 1511 1519 1526 1533 1540 1546 1551 1553 1556 1561 1566 1569 1573 1578 1583 1587 1588 1591 1593 1595 1596 1597 1597 1599 1600 1602 1603 1603 1604 1605 1605 1606
1477 1481 1470 1480 1470 1481 1468 1471 1465 1466 1467 1471 1475 1480 1485 1492 1498 1504 1511 1518 1526 1533 1539 1544 1548 1551 1556 1561 1565 1568 1574 1578 1583 1587 1588 1590 1592 1594 1594 1595 1597 1599 1599 1600 1601 1603 1603 1603 1603
1465 1468 1484 1474 1497 1502 1480 1475 1473 1463 1466 1468 1472 1474 1478 1485 1492 1499 1505 1512 1518 1524 1532 1538 1543 1545 1550 1555 1560 1564 1568 1573 1578 1581 1584 1588 1589 1591 1593 1593 1595 1597 1598 1599 1599 1601 1600 1600 1601
1473 1474 1469 1468 1473 1486 1493 1475 1452 1461 1461 1468 1469 1468 1472 1478 1485 1492 1500 1507 1514 1520 1526 1532 1537 1540 1545 1550 1555 1558 1563 1568 1573 1576 1580 1583 1586 1587 1589 1591 1592 1594 1596 1597 1597 1598 1599 1597 1598
1459 1465 1463 1473 1480 1470 1469 1468 1446 1459 1466 1468 1466 1470 1469 1473 1479 1487 1494 1502 1509 1516 1521 1526 1532 1536 1539 1544 1550 1554 1558 1564 1568 1571 1574 1578 1581 1583 1586 1588 1589 1591 1593 1594 1594 1594 1596 1596 1596